Main page
METAR-TAF:

METAR-TAF

Airports :

Sarakhs Airport

Sarakhs, Iran

latitude: 36-30-04N, longitude: 061-03-54E, elevation: 288 m

Current weather observation

The report was made 31 minutes ago, at 04:00 UTC
Wind 26 kt from the Northwest
Temperature 35°C
Humidity 44%
Pressure 1002 hPa
Visibility: 7000 m

METAR: OIMC 220400Z 31026KT 7000 NSC 35/21 Q1002

Time: 09:01 (04:31 UTC)


TAF: missing

Weather observations and forecasts of more than 4000 airports (METAR and TAF reports).

The available stations are represented by yellow and red dots on the map.

Hover mouse over dot to see the name of the station.

Then click to see weather observations and forecasts.

To change the map : click on the green buttons with a black cross to zoom in, on the green button with a dash to zoom out, or on the green arrows for adjacent maps.


METAR-TAF: